Estación Meteorológica Peña el Pijo (Robertgarden) [ 09/30/20 21:11:06 CEST ]

Fecha Hora Presion(HPa) Temp (°C) Humedad % Rocio (°C) Viento ( m/s) Direccion Lluvia 1Hora(mm) Lluvia 24H(mm) LLuvia Total(mm)
2020-Feb-09 01:09:14 1016.000 - - - - N     39.88
2020-Feb-09 02:10:09 1016.000 - - - - N     39.88
2020-Feb-09 03:09:49 1015.700 - - - - N     39.88
2020-Feb-09 04:11:53 1015.500 - - - - N     39.88
2020-Feb-09 05:08:59 1015.800 - - - - N     39.88
2020-Feb-09 06:09:12 1016.500 - - - - N     39.88
2020-Feb-09 07:09:05 1017.000 - - - - N     39.88
2020-Feb-09 08:09:01 1017.400 - - - - N     39.88
2020-Feb-09 09:09:01 1017.600 - - - - N     39.88
2020-Feb-09 10:09:05 1017.900 - - - - N     39.88
2020-Feb-09 11:08:47 1018.400 - - - - N     39.88
2020-Feb-09 12:09:13 1019.000 - - - - N     39.88
2020-Feb-09 13:09:16 1018.400 - - - - N     39.88
2020-Feb-09 14:09:18 1017.000 - - - - N     39.88
2020-Feb-09 15:09:50 1016.900 - - - - N     39.88
2020-Feb-09 16:09:01 1016.900 - - - - N     39.88
2020-Feb-09 17:09:07 1017.000 - - - - N     39.88
2020-Feb-09 18:09:05 1017.800 - - - - N     39.88
2020-Feb-09 19:08:57 1018.500 - - - - N     39.88
2020-Feb-09 20:08:52 1019.900 - - - - N     39.88
2020-Feb-09 21:09:05 1020.000 - - - - N     39.88
2020-Feb-09 22:09:11 1020.700 - - - - N     39.88
2020-Feb-09 23:08:54 1020.900 - - - - N     39.88

Temperatura Máxima:    Temperatura Mínima:
Presión Máxima:1020.900 Hpa    Presión Mínima:1015.500 Hpa


Volver